R/V Knorr Calliope CSV data file  (Time stamps are GMT)
Date, Time_GMT, Depth12, Depth35, Air_Temp, WXT5_Ta, WXT5_Pa, dec_lat, dec_lon, EDO_knt, GPS_COG, GPS_SOG, Gyro, IMET_BPR, IMET_SWR, WXT5_Ri, WXT5_Rc, HRH, WXT5_Ua, WXT5_Dm, WXT5_Sm, SBE45C, SBE45S, SBE45T, Salinity, SSCND, Fluorometer, SSTMP, SSV, Wnd_Dir, TWD_5, Wnd_Spd, TWS_5, HdChkSum=52
2008/04/11, 00:00:32, 236.90, 0.00, -2.22, -1.60, 1009.2, 70.8151800, 20.7804380, , 257.90, 0.91, 106.80, 1010.00, -0.70, 0.0, 28.38, 49.53, 53.2, 332, 6.9, 33.92720, 34.25790, 6.2429, 34.2579, 33.9258, 161.20, 4.7948, 1468.95, 94.40, 72.5, 5.57, 6.6, 52
2008/04/11, 00:01:32, 237.60, 0.00, -2.25, -1.60, 1009.1, 70.8150920, 20.7802980, , 216.30, 1.00, 105.70, 1009.92, -0.70, 0.0, 28.38, 50.69, 54.5, 326, 7.5, 33.92740, 34.25770, 6.2432, 34.2577, 33.9274, 162.20, 4.7955, 1468.95, 93.30, 68.5, 5.81, 7.7, 52
2008/04/11, 00:02:33, 237.80, 0.00, -2.25, -1.60, 1009.1, 70.8150030, 20.7802220, , 239.40, 0.38, 106.00, 1009.89, -0.80, 0.0, 28.38, 50.15, 53.4, 318, 7.2, 33.93450, 34.25780, 6.2511, 34.2578, 33.9345, 161.60, 4.7956, 1468.95, 87.30, 59.9, 5.60, 7.5, 52
2008/04/11, 00:03:32, 237.60, 0.00, -2.31, -1.60, 1009.0, 70.8149200, 20.7802020, , 181.50, 0.43, 105.30, 1009.93, -1.00, 0.0, 28.38, 48.58, 52.2, 335, 7.2, 33.92770, 34.25960, 6.2417, 34.2596, 33.9277, 157.90, 4.7962, 1468.95, 86.20, 78.5, 4.87, 7.3, 52
2008/04/11, 00:04:33, 237.40, 0.00, -2.31, -1.60, 1009.0, 70.8148550, 20.7801430, , 141.00, 0.41, 105.60, 1009.93, -1.00, 0.0, 28.38, 50.12, 52.7, 334, 6.6, 33.93450, 34.26180, 6.2471, 34.2618, 33.9345, 157.00, 4.7976, 1468.96, 92.60, 72.6, 5.28, 6.6, 52
2008/04/11, 00:05:33, 238.00, 0.00, -2.17, -1.60, 1009.2, 70.8147900, 20.7800780, , 0.80, 0.55, 105.50, 1009.79, -1.00, 0.0, 28.38, 49.42, 53.4, 333, 6.0, 33.94270, 34.26220, 6.2557, 34.2622, 33.9427, 156.70, 4.7994, 1468.97, 101.50, 75.1, 4.92, 5.9, 52
2008/04/11, 00:06:33, 237.80, 0.00, -2.22, -1.60, 1009.1, 70.8147270, 20.7800270, , 80.70, 0.64, 105.40, 1009.93, -0.90, 0.0, 28.38, 51.02, 56.9, 333, 7.7, 33.94600, 34.26190, 6.2598, 34.2619, 33.9460, 156.00, 4.8014, 1468.98, 111.80, 76.3, 4.52, 7.5, 52
2008/04/11, 00:07:33, 238.60, 0.00, -2.19, -1.50, 1009.0, 70.8146680, 20.7799900, , 320.70, 0.56, 105.50, 1009.87, -0.90, 0.0, 28.38, 51.88, 54.7, 331, 6.6, 33.94480, 34.26160, 6.2587, 34.2616, 33.9448, 155.50, 4.8039, 1468.99, 101.20, 72.3, 5.37, 6.8, 52
2008/04/11, 00:08:33, 241.30, 0.00, -2.14, -1.50, 1009.0, 70.8146180, 20.7799370, , 42.20, 1.18, 105.30, 1009.88, -0.90, 0.0, 28.38, 52.58, 57.0, 344, 7.9, 33.94080, 34.26170, 6.2542, 34.2617, 33.9408, 155.50, 4.8058, 1469.00, 105.30, 87.8, 4.81, 7.6, 52
2008/04/11, 00:09:33, 237.60, 0.00, -2.17, -1.50, 1009.1, 70.8145420, 20.7798970, , 144.40, 0.65, 106.20, 1009.77, -0.90, 0.0, 28.38, 53.79, 57.9, 331, 8.5, 33.93850, 34.26130, 6.2520, 34.2613, 33.9385, 155.20, 4.8072, 1469.00, 99.00, 74.3, 4.81, 8.6, 52
2008/04/11, 00:10:33, 237.50, 0.00, -2.19, -1.50, 1009.0, 70.8144630, 20.7797980, , 252.60, 0.31, 105.70, 1009.84, -0.70, 0.0, 28.38, 50.88, 54.2, 333, 7.0, 33.93560, 34.26190, 6.2481, 34.2619, 33.9356, 154.80, 4.8079, 1469.00, 91.30, 77.9, 5.82, 7.0, 52
2008/04/11, 00:11:32, 236.60, 0.00, -2.28, -1.50, 1009.0, 70.8143950, 20.7796970, , 186.80, 0.58, 106.50, 1009.68, -0.70, 0.0, 28.38, 48.74, 52.4, 332, 7.8, 33.93700, 34.26290, 6.2488, 34.2629, 33.9370, 155.70, 4.8083, 1469.01, 104.60, 74.4, 5.89, 7.5, 52
2008/04/11, 00:12:32, 237.60, 0.00, -2.25, -1.60, 1009.0, 70.8143150, 20.7796750, , 0.50, 0.31, 105.50, 1009.85, -0.60, 0.0, 28.38, 49.61, 53.4, 330, 7.8, 33.93670, 34.26310, 6.2482, 34.2631, 33.9367, 156.70, 4.8083, 1469.01, 96.20, 72.8, 6.81, 8.1, 52
2008/04/11, 00:13:33, 237.80, 0.00, -2.25, -1.60, 1009.1, 70.8142500, 20.7796120, , 186.40, 0.25, 106.10, 1009.86, -0.70, 0.0, 28.38, 49.34, 53.5, 331, 7.6, 33.95120, 34.26480, 6.2626, 34.2648, 33.9512, 153.60, 4.8096, 1469.01, 94.30, 73.5, 5.66, 7.9, 52
2008/04/11, 00:14:32, 237.40, 0.00, -2.25, -1.60, 1009.0, 70.8141700, 20.7795130, , 212.50, 0.55, 105.90, 1009.94, -0.90, 0.0, 28.38, 50.29, 53.3, 322, 6.5, 33.95210, 34.26590, 6.2626, 34.2659, 33.9521, 151.80, 4.8108, 1469.02, 94.40, 64.9, 5.36, 6.6, 52
2008/04/11, 00:15:33, 237.20, 0.00, -2.25, -1.60, 1009.1, 70.8140920, 20.7794430, , 184.60, 0.80, 105.90, 1009.89, -1.00, 0.0, 28.38, 51.02, 55.1, 338, 6.4, 33.95760, 34.26660, 6.2680, 34.2666, 33.9576, 149.30, 4.8110, 1469.02, 86.50, 78.0, 4.63, 6.5, 52
2008/04/11, 00:16:33, 237.80, 0.00, -2.17, -1.60, 1009.0, 70.8140380, 20.7794020, , 19.70, 0.30, 105.30, 1009.88, -1.20, 0.0, 28.38, 50.85, 54.1, 339, 7.7, 33.96160, 34.26680, 6.2723, 34.2668, 33.9616, 148.80, 4.8113, 1469.02, 107.30, 81.1, 4.33, 7.6, 52
2008/04/11, 00:17:33, 238.10, 0.00, -2.17, -1.60, 1009.1, 70.8139720, 20.7793430, , 150.30, 0.98, 106.40, 1009.88, -1.10, 0.0, 28.38, 51.40, 55.7, 334, 9.8, 33.95970, 34.26680, 6.2701, 34.2668, 33.9597, 149.00, 4.8125, 1469.03, 99.40, 78.0, 4.96, 10.1, 52
2008/04/11, 00:18:33, 237.60, 0.00, -2.08, -1.60, 1008.9, 70.8138680, 20.7792530, , 167.30, 0.71, 105.50, 1009.95, -0.90, 0.0, 28.38, 51.07, 54.9, 332, 11.0, 33.95860, 34.26680, 6.2689, 34.2668, 33.9586, 147.80, 4.8139, 1469.04, 83.70, 74.6, 6.83, 11.2, 52
2008/04/11, 00:19:33, 237.90, 0.00, -2.28, -1.50, 1008.9, 70.8137500, 20.7791800, , 180.00, 0.55, 105.70, 1009.86, -0.70, 0.0, 28.38, 50.21, 53.4, 316, 7.3, 33.96070, 34.26690, 6.2712, 34.2669, 33.9607, 146.00, 4.8164, 1469.05, 82.70, 59.4, 6.57, 7.5, 52
2008/04/11, 00:20:33, 246.60, 0.00, -2.19, -1.50, 1009.1, 70.8136550, 20.7791370, , 166.40, 0.99, 105.50, 1009.81, -0.70, 0.0, 28.38, 51.29, 55.0, 322, 8.1, 33.96060, 34.26660, 6.2712, 34.2666, 33.9606, 146.60, 4.8194, 1469.06, 81.10, 63.3, 5.55, 8.5, 52
2008/04/11, 00:21:32, 238.40, 0.00, -2.19, -1.50, 1008.9, 70.8135630, 20.7790300, , 215.10, 0.54, 106.20, 1009.92, -0.80, 0.0, 28.38, 51.72, 55.9, 329, 7.3, 33.95660, 34.26620, 6.2673, 34.2662, 33.9566, 145.40, 4.8228, 1469.07, 77.10, 72.1, 5.41, 7.5, 52
2008/04/11, 00:22:32, 239.40, 0.00, -2.28, -1.50, 1009.0, 70.8134770, 20.7789470, , 177.40, 0.60, 105.20, 1009.90, -0.70, 0.0, 28.38, 50.72, 53.9, 340, 5.9, 33.96180, 34.26630, 6.2730, 34.2663, 33.9618, 146.00, 4.8279, 1469.09, 93.00, 79.9, 6.33, 6.1, 52
2008/04/11, 00:23:33, 237.70, 0.00, -2.19, -1.60, 1009.0, 70.8134030, 20.7789380, , 141.10, 0.37, 104.90, 1009.65, -0.60, 0.0, 28.38, 49.58, 53.0, 343, 6.2, 33.96180, 34.26630, 6.2730, 34.2663, 33.9618, 145.40, 4.8308, 1469.10, 107.10, 85.7, 5.29, 6.3, 52
2008/04/11, 00:24:32, 238.30, 0.00, -2.19, -1.60, 1009.0, 70.8133600, 20.7788800, , 97.70, 0.53, 106.10, 1009.85, -0.80, 0.0, 28.38, 50.40, 53.5, 333, 5.9, 33.96110, 34.26610, 6.2723, 34.2659, 33.9641, 143.20, 4.8336, 1469.11, 110.00, 78.8, 4.45, 6.1, 52
2008/04/11, 00:25:32, 238.30, 0.00, -2.19, -1.50, 1009.0, 70.8132970, 20.7787750, , 286.60, 0.46, 105.50, 1009.81, -1.00, 0.0, 28.38, 52.83, 56.7, 327, 8.3, 33.95980, 34.26700, 6.2701, 34.2670, 33.9598, 144.40, 4.8358, 1469.12, 97.80, 69.8, 5.89, 8.6, 52
2008/04/11, 00:26:33, 237.40, 0.00, -2.19, -1.50, 1008.9, 70.8132150, 20.7787450, , 160.80, 0.86, 105.20, 1009.77, -0.70, 0.0, 28.38, 49.26, 52.4, 331, 8.5, 33.96950, 34.26890, 6.2789, 34.2689, 33.9695, 144.40, 4.8385, 1469.14, 99.30, 75.0, 6.58, 8.3, 52
2008/04/11, 00:27:32, 237.80, 0.00, -2.25, -1.50, 1009.1, 70.8131230, 20.7786330, , 146.00, 0.25, 98.40, 1009.81, -0.50, 0.0, 28.38, 49.64, 53.1, 331, 9.1, 33.96940, 34.27050, 6.2772, 34.2705, 33.9694, 146.60, 4.8408, 1469.15, 82.90, 67.3, 6.86, 9.2, 52
2008/04/11, 00:28:32, 237.80, 0.00, -2.28, -1.60, 1009.1, 70.8130480, 20.7786120, , 162.50, 0.81, 98.60, 1009.69, -0.70, 0.0, 28.38, 49.15, 52.8, 328, 8.6, 33.97100, 34.27190, 6.2776, 34.2719, 33.9710, 146.60, 4.8436, 1469.16, 81.60, 63.9, 5.91, 8.5, 52
2008/04/11, 00:29:32, 237.60, 0.00, -2.19, -1.60, 1009.0, 70.8129870, 20.7786330, , 78.10, 0.19, 99.10, 1009.88, -1.10, 0.0, 28.38, 49.07, 52.6, 330, 7.1, 33.97240, 34.27250, 6.2785, 34.2725, 33.9724, 144.80, 4.8458, 1469.17, 78.50, 64.5, 5.51, 7.3, 52
2008/04/11, 00:30:32, 238.00, 0.00, -2.25, -1.60, 1008.9, 70.8129420, 20.7785650, , 270.00, 0.35, 95.20, 1009.70, -1.00, 0.0, 28.38, 49.28, 52.7, 346, 6.7, 33.97750, 34.27310, 6.2836, 34.2731, 33.9775, 145.10, 4.8475, 1469.18, 85.90, 78.1, 5.52, 6.9, 52
2008/04/11, 00:31:33, 237.40, 0.00, -2.19, -1.60, 1009.0, 70.8129250, 20.7785800, , 172.90, 0.76, 94.90, 1009.83, -1.00, 0.0, 28.38, 50.34, 54.1, 343, 5.4, 33.98170, 34.27420, 6.2872, 34.2742, 33.9817, 141.70, 4.8481, 1469.18, 98.20, 72.6, 4.90, 5.5, 52
2008/04/11, 00:32:33, 237.70, 0.00, -2.03, -1.60, 1008.9, 70.8129250, 20.7785670, , 28.60, 0.44, 96.10, 1009.66, -0.80, 0.0, 28.38, 52.20, 56.0, 339, 6.8, 33.97980, 34.27460, 6.2847, 34.2746, 33.9798, 140.80, 4.8468, 1469.18, 103.80, 74.2, 5.45, 6.7, 52
2008/04/11, 00:33:33, 237.60, 0.00, -2.17, -1.60, 1008.9, 70.8129080, 20.7785820, , 155.30, 0.71, 94.80, 1009.75, -0.90, 0.0, 28.38, 51.53, 54.6, 334, 6.6, 33.97630, 34.27470, 6.2807, 34.2747, 33.9763, 138.70, 4.8422, 1469.16, 100.00, 68.3, 5.47, 6.5, 52
2008/04/11, 00:34:33, 238.20, 0.00, -2.17, -1.60, 1008.8, 70.8128970, 20.7785870, , 64.30, 0.57, 96.50, 1009.80, -1.20, 0.0, 28.38, 51.31, 55.8, 331, 6.0, 33.97800, 34.27470, 6.2826, 34.2747, 33.9780, 139.60, 4.8382, 1469.14, 87.10, 63.6, 5.17, 6.3, 52
2008/04/11, 00:35:33, 237.20, 0.00, -2.03, -1.50, 1009.0, 70.8128680, 20.7785330, , 26.80, 0.32, 95.40, 1009.83, -1.00, 0.0, 28.38, 52.80, 56.7, 336, 5.6, 33.98430, 34.27540, 6.2889, 34.2754, 33.9843, 139.00, 4.8347, 1469.13, 83.20, 66.0, 4.53, 5.6, 52
2008/04/11, 00:36:33, 237.80, 0.00, -2.14, -1.50, 1008.8, 70.8128470, 20.7785470, , 265.60, 0.58, 95.10, 1009.77, -0.70, 0.0, 28.38, 52.61, 56.9, 337, 6.0, 33.98980, 34.27470, 6.2958, 34.2747, 33.9898, 139.20, 4.8316, 1469.12, 93.20, 69.1, 5.60, 6.2, 52
2008/04/11, 00:37:32, 237.80, 0.00, -1.92, -1.40, 1008.8, 70.8128200, 20.7785720, , 211.40, 0.23, 95.50, 1009.75, -0.60, 0.0, 28.38, 52.39, 56.4, 332, 7.2, 33.98890, 34.27470, 6.2947, 34.2747, 33.9889, 139.00, 4.8293, 1469.11, 91.90, 66.2, 5.43, 7.3, 52
2008/04/11, 00:38:33, 238.20, 0.00, -1.80, -1.30, 1008.9, 70.8127820, 20.7785500, , 331.00, 0.32, 96.30, 1009.63, -0.40, 0.0, 28.38, 53.66, 57.8, 336, 10.9, 33.98970, 34.27440, 6.2960, 34.2744, 33.9897, 138.70, 4.8283, 1469.10, 80.30, 68.7, 5.43, 11.4, 52
2008/04/11, 00:39:32, 237.10, 0.00, -2.00, -1.30, 1008.9, 70.8127020, 20.7784780, , 78.40, 0.16, 95.90, 1009.64, -0.50, 0.0, 28.38, 49.56, 52.7, 323, 6.2, 33.98740, 34.27480, 6.2929, 34.2748, 33.9874, 139.00, 4.8283, 1469.10, 68.90, 54.1, 5.91, 6.3, 52
2008/04/11, 00:40:32, 237.60, 0.00, -2.14, -1.40, 1009.0, 70.8126380, 20.7785000, , 261.70, 0.35, 94.60, 1009.74, -0.80, 0.0, 28.38, 49.04, 52.5, 336, 8.0, 33.98390, 34.27400, 6.2898, 34.2740, 33.9839, 139.90, 4.8292, 1469.11, 80.30, 70.0, 4.77, 8.0, 52
2008/04/11, 00:41:33, 237.60, 0.00, -2.11, -1.50, 1008.9, 70.8126070, 20.7784700, , 316.70, 0.66, 96.10, 1009.69, -1.00, 0.0, 28.38, 50.21, 53.8, 341, 6.2, 33.97060, 34.27130, 6.2777, 34.2713, 33.9706, 149.30, 4.8293, 1469.11, 87.10, 77.2, 4.87, 6.3, 52
2008/04/11, 00:42:33, 236.80, 0.00, -2.11, -1.50, 1008.8, 70.8126020, 20.7784750, , 47.80, 0.34, 95.90, 1009.56, -1.00, 0.0, 28.38, 50.02, 53.0, 353, 12.1, 33.96770, 34.27060, 6.2753, 34.2706, 33.9677, 152.40, 4.8291, 1469.10, 107.80, 87.5, 5.28, 11.8, 52
2008/04/11, 00:43:33, 237.60, 0.00, -2.19, -1.60, 1008.8, 70.8126150, 20.7785030, , 40.90, 1.06, 95.80, 1009.68, -0.90, 0.0, 28.38, 49.69, 53.0, 347, 6.0, 33.96540, 34.26990, 6.2733, 34.2699, 33.9654, 153.60, 4.8279, 1469.10, 116.20, 85.2, 6.59, 6.0, 52
2008/04/11, 00:44:33, 237.50, 0.00, -2.22, -1.60, 1008.9, 70.8126330, 20.7784970, , 73.40, 0.49, 95.70, 1009.64, -0.90, 0.0, 28.38, 50.15, 53.8, 344, 6.9, 33.96340, 34.26980, 6.2713, 34.2698, 33.9634, 155.70, 4.8266, 1469.09, 113.20, 77.3, 4.96, 6.8, 52
2008/04/11, 00:45:33, 237.90, 0.00, -2.19, -1.60, 1009.0, 70.8126470, 20.7785000, , 273.40, 1.04, 95.30, 1009.70, -1.00, 0.0, 28.38, 50.29, 53.6, 346, 7.0, 33.97080, 34.26900, 6.2802, 34.2690, 33.9708, 155.20, 4.8266, 1469.09, 102.00, 77.0, 4.90, 7.3, 52
2008/04/11, 00:46:33, 236.90, 0.00, -2.03, -1.50, 1008.8, 70.8126530, 20.7784870, , 48.60, 0.38, 95.90, 1009.62, -0.70, 0.0, 28.38, 53.42, 58.0, 339, 7.4, 33.96900, 34.27120, 6.2761, 34.2712, 33.9690, 148.80, 4.8265, 1469.09, 101.00, 69.6, 4.52, 7.3, 52
2008/04/11, 00:47:33, 237.30, 0.00, -2.14, -1.40, 1008.8, 70.8126450, 20.7784820, , 95.40, 0.47, 95.70, 1009.70, -0.80, 0.0, 28.38, 52.12, 55.2, 341, 7.3, 33.97100, 34.27170, 6.2778, 34.2717, 33.9710, 148.80, 4.8249, 1469.09, 91.50, 72.1, 6.01, 7.3, 52
2008/04/11, 00:48:32, 237.40, 0.00, -2.19, -1.40, 1008.9, 70.8126470, 20.7784770, , 344.90, 0.50, 95.70, 1009.80, -0.60, 0.0, 28.38, 50.75, 54.0, 346, 6.3, 33.97370, 34.27170, 6.2808, 34.2717, 33.9737, 147.50, 4.8233, 1469.08, 96.80, 80.2, 5.16, 6.5, 52
2008/04/11, 00:49:33, 237.70, 0.00, -2.06, -1.50, 1008.8, 70.8126530, 20.7785200, , 51.00, 0.10, 95.40, 1009.65, -0.90, 0.0, 28.38, 53.34, 57.7, 354, 7.6, 33.97240, 34.27200, 6.2791, 34.2720, 33.9724, 147.20, 4.8210, 1469.07, 102.90, 86.6, 4.72, 7.7, 52
2008/04/11, 00:50:33, 237.30, 0.00, -2.06, -1.50, 1008.9, 70.8126470, 20.7784880, , 63.20, 0.91, 95.40, 1009.44, -1.10, 0.0, 28.38, 52.77, 56.6, 347, 8.1, 33.96910, 34.27050, 6.2769, 34.2705, 33.9691, 149.60, 4.8196, 1469.06, 104.80, 77.1, 5.17, 8.2, 52
2008/04/11, 00:51:32, 237.80, 0.00, -2.06, -1.50, 1008.9, 70.8126150, 20.7784370, , 193.40, 0.67, 95.70, 1009.80, -0.90, 0.0, 28.38, 51.48, 54.8, 332, 7.3, 33.97980, 34.27050, 6.2888, 34.2704, 33.9670, 152.40, 4.8196, 1469.06, 99.80, 66.4, 6.06, 7.5, 52
2008/04/11, 00:52:33, 239.50, 0.00, -2.11, -1.60, 1008.8, 70.8125650, 20.7784470, , 198.40, 0.33, 94.70, 1009.62, -0.70, 0.0, 28.38, 49.53, 52.6, 331, 7.2, 33.96570, 34.26890, 6.2747, 34.2689, 33.9657, 156.40, 4.8202, 1469.06, 84.20, 62.9, 5.71, 7.1, 52
2008/04/11, 00:53:33, 237.10, 0.00, -2.11, -1.60, 1008.8, 70.8125420, 20.7784400, , 141.30, 0.30, 95.70, 1009.78, -0.90, 0.0, 28.38, 50.21, 53.5, 337, 7.0, 33.96520, 34.26880, 6.2742, 34.2688, 33.9652, 157.00, 4.8209, 1469.07, 92.30, 67.4, 5.34, 6.9, 52
2008/04/11, 00:54:32, 237.40, 0.00, -2.17, -1.60, 1008.8, 70.8125130, 20.7784400, , 129.00, 0.72, 95.80, 1009.53, -0.70, 0.0, 28.38, 50.48, 54.0, 339, 6.9, 33.96220, 34.26860, 6.2710, 34.2686, 33.9622, 158.20, 4.8219, 1469.07, 88.60, 69.7, 4.90, 6.9, 52
2008/04/11, 00:55:33, 237.50, 0.00, -2.25, -1.60, 1008.7, 70.8124770, 20.7784180, , 197.90, 0.72, 94.90, 1009.75, -0.90, 0.0, 28.38, 51.91, 55.5, 336, 7.6, 33.95610, 34.26730, 6.2656, 34.2673, 33.9561, 160.60, 4.8211, 1469.07, 94.60, 70.1, 6.39, 7.7, 52
2008/04/11, 00:56:33, 237.10, 0.00, -2.17, -1.50, 1008.7, 70.8124520, 20.7783930, , 195.50, 1.23, 95.40, 1009.57, -0.70, 0.0, 28.38, 53.47, 57.3, 340, 6.2, 33.95220, 34.26740, 6.2611, 34.2674, 33.9522, 160.90, 4.8214, 1469.07, 103.60, 77.3, 5.70, 6.0, 52
2008/04/11, 00:57:32, 237.60, 0.00, -2.17, -1.50, 1008.8, 70.8124250, 20.7783950, , 90.00, 0.54, 95.60, 1009.67, -0.50, 0.0, 28.38, 51.26, 54.8, 341, 8.6, 33.94940, 34.26790, 6.2576, 34.2679, 33.9494, 159.70, 4.8218, 1469.07, 102.10, 75.9, 5.73, 8.4, 52
2008/04/11, 00:58:32, 237.50, 0.00, -2.22, -1.60, 1008.8, 70.8123970, 20.7783970, , 12.60, 0.66, 95.80, 1009.74, -0.60, 0.0, 28.38, 50.31, 54.1, 329, 7.1, 33.94740, 34.26720, 6.2561, 34.2672, 33.9474, 161.20, 4.8226, 1469.07, 94.50, 62.4, 6.37, 6.8, 52
2008/04/11, 00:59:32, 237.50, 0.00, -2.17, -1.60, 1008.9, 70.8123380, 20.7784170, , 160.80, 1.03, 95.00, 1009.76, -0.80, 0.0, 28.38, 50.94, 55.1, 317, 7.7, 33.94650, 34.26730, 6.2549, 34.2673, 33.9465, 160.00, 4.8232, 1469.07, 77.10, 51.1, 5.82, 7.8, 52
2008/04/11, 01:00:32, 237.40, 0.00, -2.19, -1.60, 1008.8, 70.8123020, 20.7783770, , 286.20, 0.43, 95.80, 1009.68, -1.00, 0.0, 28.38, 52.02, 56.3, 336, 6.0, 33.94910, 34.26760, 6.2575, 34.2676, 33.9491, 160.00, 4.8247, 1469.08, 74.10, 66.2, 4.62, 6.1, 52
2008/04/11, 01:01:33, 236.60, 0.00, -2.11, -1.50, 1008.9, 70.8122780, 20.7783750, , 183.60, 0.22, 96.90, 1009.74, -0.90, 0.0, 28.38, 53.63, 58.0, 334, 7.6, 33.95210, 34.26780, 6.2607, 34.2678, 33.9521, 158.80, 4.8252, 1469.08, 103.80, 67.3, 3.62, 7.2, 52
2008/04/11, 01:02:33, 238.50, 0.00, -2.17, -1.40, 1008.7, 70.8122570, 20.7783470, , 270.40, 0.66, 95.70, 1009.58, -0.80, 0.0, 28.38, 52.07, 55.2, 332, 5.7, 33.95310, 34.26740, 6.2621, 34.2674, 33.9531, 158.50, 4.8244, 1469.08, 94.10, 67.3, 6.71, 6.3, 52
2008/04/11, 01:03:33, 236.90, 0.00, -2.11, -1.50, 1008.7, 70.8122250, 20.7783670, , 188.90, 0.35, 96.40, 1009.56, -0.70, 0.0, 28.38, 52.42, 56.7, 328, 8.0, 33.95390, 34.26760, 6.2629, 34.2676, 33.9539, 157.20, 4.8224, 1469.07, 93.60, 60.3, 6.00, 7.7, 52
2008/04/11, 01:04:33, 236.90, 0.00, -2.22, -1.50, 1008.9, 70.8121800, 20.7783600, , 247.80, 0.21, 94.90, 1009.65, -0.80, 0.0, 28.38, 51.85, 55.6, 335, 4.9, 33.95320, 34.26860, 6.2611, 34.2686, 33.9532, 154.50, 4.8220, 1469.07, 80.70, 67.6, 5.23, 4.6, 52
2008/04/11, 01:05:33, 237.40, 0.00, -2.06, -1.50, 1008.9, 70.8121480, 20.7783330, , 172.00, 0.35, 96.30, 1009.65, -1.00, 0.0, 28.38, 53.09, 57.3, 335, 7.1, 33.95530, 34.26820, 6.2639, 34.2682, 33.9553, 155.50, 4.8224, 1469.07, 88.90, 67.3, 4.10, 7.2, 52
2008/04/11, 01:06:33, 237.80, 0.00, -2.06, -1.50, 1008.8, 70.8120930, 20.7783380, , 185.50, 0.86, 95.30, 1009.50, -0.90, 0.0, 28.38, 51.26, 54.7, 328, 6.3, 33.95560, 34.26790, 6.2645, 34.2679, 33.9556, 155.20, 4.8227, 1469.07, 83.50, 59.5, 5.86, 6.6, 52
2008/04/11, 01:07:33, 238.00, 0.00, -2.11, -1.50, 1008.8, 70.8120550, 20.7783070, , 336.90, 0.49, 96.30, 1009.73, -1.00, 0.0, 28.38, 51.88, 55.3, 348, 6.7, 33.95680, 34.26780, 6.2659, 34.2678, 33.9568, 154.80, 4.8236, 1469.08, 94.00, 79.1, 5.14, 6.7, 52
2008/04/11, 01:08:32, 237.60, 0.00, -2.14, -1.50, 1008.9, 70.8120280, 20.7783200, , 31.90, 0.84, 95.80, 1009.60, -0.90, 0.0, 28.38, 51.96, 55.6, 337, 6.2, 33.95980, 34.26800, 6.2691, 34.2680, 33.9598, 154.00, 4.8255, 1469.08, 102.40, 66.7, 5.37, 6.3, 52
2008/04/11, 01:09:33, 237.50, 0.00, -2.33, -1.60, 1008.8, 70.8119920, 20.7783430, , 143.60, 0.90, 93.30, 1009.64, -1.00, 0.0, 28.38, 50.94, 54.0, 341, 7.3, 33.96070, 34.26920, 6.2689, 34.2692, 33.9607, 152.70, 4.8264, 1469.09, 95.90, 74.5, 5.92, 7.3, 52
2008/04/11, 01:10:33, 238.30, 0.00, -2.25, -1.60, 1008.8, 70.8119930, 20.7783180, , 93.20, 0.49, 94.00, 1009.71, -1.10, 0.0, 28.38, 50.96, 54.0, 346, 6.2, 33.96040, 34.26820, 6.2695, 34.2682, 33.9604, 154.50, 4.8271, 1469.09, 97.00, 79.7, 5.29, 6.5, 52
2008/04/11, 01:11:33, 237.90, 0.00, -2.25, -1.60, 1008.9, 70.8119980, 20.7783000, , 128.00, 0.64, 92.90, 1009.66, -1.10, 0.0, 28.38, 51.34, 54.8, 343, 7.0, 33.95680, 34.26810, 6.2656, 34.2681, 33.9568, 153.00, 4.8279, 1469.09, 97.60, 70.6, 4.71, 7.3, 52
2008/04/11, 01:12:32, 237.40, 0.00, -2.22, -1.60, 1008.8, 70.8119870, 20.7782970, , 318.00, 0.03, 93.60, 1009.63, -1.20, 0.0, 28.38, 53.04, 56.3, 346, 6.5, 33.95640, 34.26910, 6.2642, 34.2691, 33.9564, 152.40, 4.8301, 1469.10, 98.30, 76.7, 4.60, 6.5, 52
2008/04/11, 01:13:33, 237.10, 0.00, -2.25, -1.60, 1008.9, 70.8119930, 20.7782770, , 203.60, 0.78, 93.90, 1009.67, -1.00, 0.0, 28.38, 52.83, 56.5, 349, 6.7, 33.95800, 34.26870, 6.2664, 34.2687, 33.9580, 154.20, 4.8322, 1469.11, 108.00, 81.5, 5.13, 6.3, 52
2008/04/11, 01:14:33, 237.70, 0.00, -2.06, -1.50, 1008.7, 70.8120120, 20.7782770, , 47.00, 0.68, 93.20, 1009.60, -0.80, 0.0, 28.38, 54.84, 59.4, 345, 5.4, 33.96590, 34.26860, 6.2752, 34.2686, 33.9659, 152.40, 4.8339, 1469.12, 107.60, 74.8, 4.82, 5.4, 52
2008/04/11, 01:15:33, 238.00, 0.00, -2.22, -1.50, 1008.7, 70.8120270, 20.7782970, , 33.60, 0.88, 93.30, 1009.55, -1.00, 0.0, 28.38, 52.48, 56.4, 342, 6.0, 33.96380, 34.26880, 6.2726, 34.2688, 33.9638, 152.40, 4.8347, 1469.12, 106.40, 69.5, 4.75, 6.0, 52
2008/04/11, 01:16:33, 237.90, 0.00, -2.31, -1.60, 1008.8, 70.8120380, 20.7782580, , 282.90, 0.55, 93.70, 1009.44, -1.00, 0.0, 28.38, 52.18, 55.7, 350, 6.7, 33.96430, 34.26860, 6.2734, 34.2686, 33.9643, 152.10, 4.8347, 1469.12, 105.10, 81.2, 5.07, 6.8, 52
2008/04/11, 01:17:33, 238.50, 0.00, -2.19, -1.60, 1008.8, 70.8120520, 20.7783050, , 97.60, 0.46, 93.50, 1009.55, -0.90, 0.0, 28.38, 53.63, 57.3, 327, 7.8, 33.96360, 34.26880, 6.2725, 34.2688, 33.9636, 150.60, 4.8326, 1469.12, 105.00, 58.2, 5.50, 8.2, 52
2008/04/11, 01:18:32, 237.30, 0.00, -2.19, -1.50, 1008.7, 70.8120250, 20.7782920, , 231.50, 0.79, 93.50, 1009.60, -0.50, 0.0, 28.38, 53.55, 56.9, 324, 8.4, 33.96310, 34.26850, 6.2721, 34.2685, 33.9631, 149.00, 4.8308, 1469.11, 77.70, 53.3, 4.92, 8.5, 52
2008/04/11, 01:19:33, 237.80, 0.00, -2.17, -1.50, 1008.7, 70.8119830, 20.7782750, , 342.90, 0.39, 93.90, 1009.61, -0.70, 0.0, 28.38, 52.77, 56.2, 322, 6.1, 33.96370, 34.26930, 6.2721, 34.2693, 33.9637, 148.80, 4.8269, 1469.09, 71.40, 53.4, 4.69, 6.1, 52
2008/04/11, 01:20:33, 237.60, 0.00, -2.25, -1.50, 1008.8, 70.8119470, 20.7782880, , 238.60, 0.16, 93.00, 1009.50, -1.10, 0.0, 28.38, 53.36, 56.6, 329, 7.8, 33.96640, 34.26910, 6.2752, 34.2691, 33.9664, 149.00, 4.8237, 1469.08, 73.50, 58.5, 4.04, 7.6, 52
2008/04/11, 01:21:32, 238.50, 0.00, -2.17, -1.50, 1008.7, 70.8119130, 20.7782870, , 256.20, 0.83, 93.90, 1009.47, -0.90, 0.0, 28.38, 54.94, 58.6, 327, 5.3, 33.96750, 34.26830, 6.2773, 34.2683, 33.9675, 148.80, 4.8212, 1469.07, 79.80, 57.5, 4.43, 5.5, 52
2008/04/11, 01:22:32, 237.50, 0.00, -2.03, -1.40, 1008.7, 70.8118900, 20.7782620, , 221.10, 0.35, 93.60, 1009.43, -0.90, 0.0, 28.38, 56.33, 61.6, 342, 6.6, 33.97220, 34.26920, 6.2816, 34.2692, 33.9722, 148.40, 4.8184, 1469.06, 94.60, 74.0, 4.45, 6.4, 52
2008/04/11, 01:23:33, 238.10, 0.00, -2.33, -1.40, 1008.6, 70.8118820, 20.7782400, , 242.90, 0.29, 93.30, 1009.52, -0.80, 0.0, 28.38, 52.53, 56.6, 346, 7.1, 33.96630, 34.26840, 6.2758, 34.2684, 33.9663, 146.90, 4.8151, 1469.04, 103.10, 78.5, 6.02, 7.3, 52
2008/04/11, 01:24:33, 237.80, 0.00, -2.11, -1.50, 1008.7, 70.8118770, 20.7782580, , 178.00, 0.55, 94.20, 1009.45, -0.80, 0.0, 28.38, 53.09, 57.4, 338, 6.7, 33.96170, 34.26860, 6.2704, 34.2686, 33.9617, 149.00, 4.8125, 1469.03, 97.20, 68.3, 5.36, 6.8, 52
2008/04/11, 01:25:33, 237.70, 0.00, -2.08, -1.50, 1008.7, 70.8118470, 20.7782500, , 30.70, 0.90, 90.00, 1009.56, -0.90, 0.0, 28.38, 52.07, 55.5, 348, 8.4, 33.95820, 34.26780, 6.2675, 34.2678, 33.9582, 151.50, 4.8084, 1469.01, 89.00, 76.2, 6.14, 8.3, 52
2008/04/11, 01:26:32, 238.00, 0.00, -2.14, -1.50, 1008.7, 70.8118330, 20.7783020, , 33.70, 0.36, 87.90, 1009.58, -1.00, 0.0, 28.38, 51.75, 55.2, 347, 6.2, 33.95120, 34.26670, 6.2608, 34.2667, 33.9512, 155.20, 4.8053, 1469.00, 97.80, 73.5, 4.94, 6.1, 52
2008/04/11, 01:27:32, 237.70, 0.00, -2.25, -1.60, 1008.8, 70.8118470, 20.7784000, , 75.80, 0.51, 88.50, 1009.50, -0.90, 0.0, 28.38, 51.96, 55.4, 341, 4.3, 33.94800, 34.26600, 6.2579, 34.2660, 33.9480, 155.20, 4.8026, 1468.99, 107.30, 68.1, 4.40, 4.1, 52
2008/04/11, 01:28:33, 237.80, 0.00, -2.14, -1.60, 1008.6, 70.8118670, 20.7785620, , 49.40, 0.78, 88.10, 1009.57, -0.90, 0.0, 28.38, 54.27, 58.8, 341, 7.6, 33.94030, 34.26510, 6.2502, 34.2651, 33.9403, 155.70, 4.8011, 1468.98, 101.20, 67.3, 3.67, 7.2, 52
2008/04/11, 01:29:33, 237.40, 0.00, -2.11, -1.50, 1008.7, 70.8118750, 20.7786980, , 38.30, 0.48, 88.70, 1009.59, -0.90, 0.0, 28.38, 54.35, 58.2, 356, 6.5, 33.94060, 34.26490, 6.2508, 34.2649, 33.9406, 156.00, 4.8011, 1468.98, 92.80, 80.3, 4.53, 6.3, 52
2008/04/11, 01:30:33, 238.10, 0.00, -2.11, -1.50, 1008.6, 70.8119070, 20.7788430, , 94.70, 0.41, 88.60, 1009.39, -1.00, 0.0, 28.38, 54.94, 58.7, 345, 6.4, 33.94160, 34.26440, 6.2523, 34.2644, 33.9416, 156.00, 4.8022, 1468.99, 108.30, 72.8, 5.02, 6.5, 52
2008/04/11, 01:31:33, 237.10, 0.00, -1.94, -1.50, 1008.5, 70.8119500, 20.7790050, , 346.60, 0.17, 89.20, 1009.38, -0.80, 0.0, 28.38, 56.44, 60.2, 335, 6.8, 33.92700, 34.26360, 6.2370, 34.2636, 33.9270, 157.20, 4.8027, 1468.99, 104.70, 62.1, 5.24, 6.4, 52